User: anonymous   Login
Location: Unspecified
(0.0000°N, 0.0000°E)
Time: 04:53:12
(UTC+02:00)
Language:

Cosmos 1933 - Orbit

View from above orbital plane
View from above orbital plane
View from above satellite
View from above satellite

Ground track
Ground track

The orbit data is extracted from the following two-line orbital elements,

1 18958U 88020A   15214.15675932  .00001075  00000-0  79178-4 0  9999
2 18958 082.5281 044.4632 0013515 091.5315 268.7459 15.02299575488647
Epoch (UTC): 02 August 2015 03:45:44
Eccentricity: 0.0013515
inclination: 82.5281°
perigee height: 550 km
apogee height: 569 km
right ascension of ascending node: 44.4632°
argument of perigee: 91.5315°
revolutions per day: 15.02299575
mean anomaly at epoch: 268.7459°
orbit number at epoch: 48864

The dashed part of the orbit path shows where the satellite is in the earth's shadow,  

DLR